Back to catalog

FALCON 9 R/B

AliveHEO
NORAD 58699·ROCKET BODY·🇺🇸 United States

Launched Jan 3, 2024 from Cape Canaveral Space Force Station

Loading…

Next Passes (next 24 hours)

TLE

FreshSource: Space-Track

Epoch: Sep 13, 2026, 18:49 UTC

1 58699U 24003B   26256.78418616 -.00000130  00000-0  16923-4 0  9998
2 58699  27.1678  32.3708 7696070 257.8617  15.5766  1.74596674 16752

Track FALCON 9 R/B in real time with AllMySat

Download on the App Store